Precipitable_Water
0.45 0.45 0.46 0.48 0.48 0.49 0.50 0.53 0.57 0.58 0.57 0.56 0.56 0.56 0.55 0.53 0.52 0.54 0.55 0.55 0.54 0.53 0.51 0.49 0.50 0.49 0.48 0.50 0.52 0.50 0.50 0.37 0.34 0.33 0.31 0.32 0.38 0.42 0.43 0.44 0.43 0.43 0.42 0.38 0.35 0.34 0.31 0.32 0.31 0.34 0.31 0.30 0.27 0.25 0.28 0.28 0.26 0.23 0.17 0.16 0.14 0.16 0.16 0.19 0.18 0.19 0.21 0.19 0.20 0.21 0.25 0.26 0.25 0.36 0.42 0.52 0.48 0.48 0.55 0.54 0.68 0.73 0.70 0.78 0.83 0.89 0.90 0.89
0.46 0.45 0.45 0.47 0.47 0.47 0.48 0.50 0.53 0.55 0.55 0.55 0.56 0.56 0.55 0.54 0.52 0.51 0.52 0.54 0.52 0.52 0.49 0.50 0.52 0.52 0.52 0.52 0.54 0.54 0.48 0.39 0.29 0.28 0.28 0.38 0.41 0.42 0.44 0.43 0.43 0.43 0.42 0.36 0.34 0.33 0.31 0.30 0.32 0.34 0.30 0.25 0.30 0.24 0.27 0.23 0.25 0.19 0.17 0.16 0.15 0.18 0.19 0.21 0.22 0.23 0.22 0.21 0.22 0.22 0.23 0.22 0.26 0.32 0.34 0.34 0.39 0.38 0.37 0.48 0.56 0.52 0.65 0.74 0.78 0.79 0.78 0.78
0.47 0.46 0.45 0.47 0.48 0.49 0.49 0.50 0.50 0.52 0.53 0.53 0.53 0.55 0.55 0.55 0.52 0.50 0.49 0.49 0.50 0.49 0.50 0.52 0.54 0.53 0.54 0.55 0.55 0.58 0.51 0.37 0.31 0.23 0.28 0.39 0.38 0.38 0.43 0.42 0.44 0.45 0.41 0.36 0.37 0.37 0.34 0.33 0.35 0.33 0.31 0.27 0.28 0.22 0.24 0.21 0.23 0.20 0.16 0.14 0.16 0.20 0.21 0.23 0.24 0.24 0.24 0.24 0.23 0.22 0.23 0.22 0.23 0.26 0.38 0.35 0.36 0.40 0.32 0.38 0.46 0.45 0.49 0.59 0.67 0.72 0.71 0.72
0.48 0.48 0.47 0.47 0.49 0.50 0.49 0.49 0.49 0.50 0.52 0.53 0.53 0.53 0.54 0.54 0.53 0.50 0.49 0.48 0.47 0.47 0.49 0.53 0.55 0.54 0.54 0.56 0.59 0.59 0.50 0.35 0.26 0.29 0.34 0.36 0.37 0.40 0.42 0.44 0.45 0.45 0.44 0.42 0.41 0.40 0.40 0.38 0.37 0.35 0.29 0.25 0.26 0.27 0.22 0.22 0.19 0.20 0.18 0.16 0.17 0.21 0.21 0.24 0.26 0.26 0.26 0.27 0.25 0.24 0.24 0.23 0.23 0.26 0.34 0.36 0.31 0.36 0.42 0.50 0.45 0.44 0.51 0.58 0.63 0.64 0.65 0.63
0.49 0.49 0.48 0.47 0.47 0.48 0.48 0.48 0.48 0.48 0.50 0.53 0.54 0.54 0.54 0.54 0.53 0.51 0.50 0.48 0.47 0.46 0.48 0.51 0.52 0.55 0.58 0.60 0.60 0.62 0.42 0.26 0.24 0.38 0.39 0.40 0.36 0.40 0.43 0.45 0.46 0.45 0.45 0.44 0.44 0.42 0.39 0.35 0.35 0.32 0.29 0.23 0.25 0.24 0.23 0.22 0.22 0.20 0.19 0.20 0.21 0.22 0.22 0.26 0.27 0.27 0.27 0.28 0.26 0.26 0.23 0.22 0.26 0.31 0.33 0.29 0.22 0.29 0.44 0.53 0.59 0.58 0.58 0.54 0.52 0.56 0.58 0.56
0.51 0.50 0.49 0.48 0.47 0.49 0.50 0.50 0.50 0.50 0.51 0.53 0.55 0.55 0.54 0.52 0.52 0.52 0.51 0.50 0.49 0.48 0.47 0.50 0.55 0.58 0.60 0.60 0.60 0.54 0.39 0.17 0.34 0.34 0.45 0.41 0.41 0.42 0.44 0.46 0.48 0.48 0.46 0.39 0.38 0.37 0.35 0.32 0.32 0.27 0.26 0.25 0.23 0.20 0.22 0.23 0.22 0.18 0.24 0.26 0.26 0.27 0.26 0.28 0.28 0.28 0.28 0.28 0.26 0.25 0.25 0.25 0.24 0.28 0.37 0.36 0.33 0.45 0.63 0.66 0.63 0.60 0.59 0.59 0.60 0.58 0.55 0.54
0.52 0.51 0.51 0.50 0.48 0.49 0.51 0.51 0.52 0.52 0.53 0.55 0.55 0.54 0.52 0.51 0.51 0.51 0.51 0.50 0.50 0.49 0.48 0.54 0.58 0.61 0.60 0.59 0.54 0.44 0.33 0.33 0.38 0.38 0.46 0.40 0.43 0.43 0.47 0.50 0.51 0.46 0.42 0.37 0.36 0.33 0.33 0.31 0.29 0.26 0.26 0.25 0.25 0.23 0.23 0.23 0.24 0.24 0.25 0.28 0.28 0.30 0.28 0.30 0.29 0.30 0.29 0.29 0.28 0.27 0.28 0.24 0.25 0.24 0.45 0.40 0.54 0.62 0.67 0.66 0.63 0.63 0.65 0.64 0.56 0.57 0.54 0.54
0.55 0.52 0.51 0.51 0.50 0.50 0.51 0.51 0.54 0.55 0.55 0.55 0.54 0.52 0.51 0.50 0.50 0.51 0.51 0.50 0.50 0.48 0.52 0.55 0.56 0.58 0.57 0.47 0.38 0.31 0.32 0.29 0.39 0.44 0.39 0.38 0.42 0.48 0.49 0.48 0.46 0.43 0.39 0.36 0.35 0.33 0.33 0.29 0.28 0.30 0.27 0.23 0.25 0.25 0.26 0.25 0.27 0.26 0.26 0.30 0.30 0.32 0.33 0.32 0.30 0.30 0.30 0.31 0.31 0.30 0.26 0.24 0.28 0.35 0.46 0.49 0.62 0.65 0.65 0.67 0.64 0.63 0.61 0.60 0.56 0.55 0.55 0.55
0.59 0.56 0.53 0.51 0.51 0.50 0.51 0.51 0.53 0.55 0.56 0.55 0.53 0.52 0.51 0.49 0.48 0.49 0.50 0.50 0.49 0.50 0.56 0.56 0.56 0.60 0.61 0.46 0.37 0.29 0.26 0.36 0.42 0.42 0.38 0.36 0.41 0.44 0.43 0.39 0.46 0.41 0.39 0.39 0.39 0.36 0.33 0.30 0.31 0.31 0.25 0.25 0.29 0.27 0.28 0.25 0.25 0.30 0.29 0.31 0.32 0.32 0.33 0.33 0.31 0.31 0.31 0.33 0.33 0.28 0.31 0.38 0.44 0.48 0.43 0.58 0.62 0.66 0.64 0.60 0.60 0.59 0.55 0.53 0.53 0.54 0.55 0.57
0.60 0.59 0.56 0.53 0.52 0.51 0.51 0.51 0.53 0.54 0.55 0.56 0.56 0.54 0.52 0.49 0.47 0.47 0.49 0.49 0.49 0.51 0.56 0.56 0.58 0.59 0.51 0.41 0.37 0.26 0.33 0.46 0.44 0.43 0.40 0.36 0.40 0.40 0.40 0.41 0.42 0.40 0.37 0.37 0.37 0.36 0.32 0.34 0.33 0.34 0.33 0.29 0.31 0.28 0.31 0.29 0.28 0.35 0.32 0.34 0.34 0.35 0.34 0.36 0.32 0.33 0.35 0.34 0.34 0.30 0.30 0.31 0.36 0.38 0.37 0.60 0.62 0.61 0.58 0.56 0.58 0.54 0.51 0.53 0.54 0.58 0.61 0.61
0.61 0.60 0.59 0.56 0.53 0.51 0.51 0.52 0.53 0.54 0.55 0.58 0.58 0.57 0.54 0.51 0.48 0.47 0.47 0.48 0.48 0.52 0.55 0.55 0.59 0.58 0.43 0.42 0.32 0.26 0.45 0.46 0.45 0.44 0.44 0.43 0.40 0.39 0.38 0.41 0.42 0.39 0.37 0.36 0.35 0.36 0.36 0.36 0.37 0.35 0.32 0.28 0.30 0.28 0.30 0.30 0.34 0.34 0.34 0.35 0.35 0.36 0.36 0.36 0.35 0.35 0.36 0.35 0.38 0.35 0.33 0.35 0.36 0.39 0.39 0.54 0.61 0.61 0.53 0.53 0.53 0.53 0.54 0.57 0.60 0.62 0.66 0.67
0.61 0.61 0.60 0.58 0.55 0.52 0.52 0.53 0.54 0.54 0.57 0.59 0.60 0.60 0.57 0.53 0.51 0.50 0.49 0.50 0.51 0.54 0.55 0.55 0.57 0.56 0.50 0.40 0.34 0.33 0.50 0.47 0.49 0.47 0.44 0.42 0.39 0.39 0.40 0.41 0.41 0.39 0.37 0.34 0.33 0.35 0.35 0.35 0.36 0.33 0.27 0.34 0.26 0.30 0.29 0.34 0.33 0.35 0.34 0.28 0.33 0.35 0.34 0.39 0.36 0.38 0.40 0.38 0.41 0.39 0.35 0.34 0.38 0.39 0.59 0.63 0.65 0.61 0.55 0.53 0.54 0.55 0.58 0.61 0.63 0.65 0.67 0.69
0.63 0.61 0.60 0.59 0.56 0.52 0.51 0.53 0.56 0.57 0.60 0.63 0.65 0.64 0.61 0.57 0.52 0.52 0.54 0.54 0.56 0.54 0.58 0.60 0.59 0.57 0.45 0.34 0.36 0.47 0.52 0.52 0.50 0.48 0.46 0.46 0.44 0.43 0.42 0.42 0.41 0.41 0.40 0.36 0.33 0.34 0.36 0.36 0.35 0.31 0.34 0.32 0.31 0.27 0.34 0.38 0.38 0.37 0.33 0.29 0.29 0.29 0.30 0.38 0.44 0.45 0.41 0.42 0.45 0.40 0.27 0.32 0.41 0.53 0.61 0.68 0.65 0.62 0.57 0.54 0.56 0.58 0.60 0.63 0.65 0.66 0.68 0.72
0.71 0.64 0.61 0.59 0.56 0.53 0.52 0.53 0.54 0.58 0.63 0.65 0.64 0.63 0.63 0.59 0.55 0.55 0.56 0.55 0.57 0.57 0.60 0.62 0.61 0.54 0.45 0.36 0.45 0.52 0.55 0.56 0.53 0.47 0.44 0.46 0.42 0.39 0.41 0.42 0.42 0.41 0.41 0.38 0.37 0.39 0.38 0.39 0.37 0.35 0.38 0.33 0.31 0.40 0.36 0.36 0.39 0.30 0.34 0.33 0.27 0.26 0.27 0.40 0.44 0.46 0.41 0.47 0.46 0.44 0.30 0.35 0.47 0.58 0.65 0.69 0.70 0.63 0.56 0.57 0.59 0.61 0.63 0.64 0.65 0.65 0.66 0.69
0.81 0.71 0.64 0.59 0.56 0.52 0.52 0.54 0.54 0.59 0.62 0.63 0.63 0.63 0.65 0.61 0.56 0.56 0.57 0.59 0.60 0.61 0.62 0.66 0.62 0.48 0.39 0.38 0.51 0.55 0.56 0.56 0.46 0.44 0.48 0.43 0.40 0.38 0.36 0.39 0.39 0.40 0.40 0.40 0.38 0.39 0.39 0.39 0.36 0.32 0.30 0.37 0.38 0.36 0.33 0.33 0.32 0.32 0.25 0.25 0.32 0.28 0.31 0.39 0.45 0.45 0.37 0.45 0.48 0.43 0.32 0.35 0.45 0.58 0.66 0.70 0.69 0.67 0.59 0.60 0.62 0.63 0.64 0.64 0.63 0.63 0.64 0.66
0.81 0.79 0.70 0.61 0.56 0.52 0.52 0.54 0.57 0.60 0.60 0.62 0.63 0.64 0.67 0.64 0.57 0.58 0.61 0.63 0.65 0.65 0.65 0.54 0.49 0.45 0.38 0.34 0.41 0.55 0.50 0.43 0.43 0.47 0.48 0.46 0.43 0.38 0.42 0.41 0.42 0.40 0.40 0.39 0.42 0.41 0.40 0.38 0.32 0.33 0.31 0.33 0.31 0.30 0.30 0.27 0.29 0.31 0.27 0.27 0.28 0.32 0.31 0.33 0.40 0.44 0.44 0.41 0.43 0.40 0.32 0.37 0.41 0.58 0.64 0.68 0.66 0.67 0.63 0.62 0.63 0.64 0.64 0.64 0.63 0.63 0.64 0.65
0.80 0.78 0.75 0.65 0.57 0.52 0.52 0.55 0.60 0.61 0.62 0.62 0.63 0.64 0.67 0.64 0.62 0.63 0.64 0.64 0.65 0.68 0.62 0.47 0.52 0.49 0.31 0.42 0.53 0.42 0.39 0.46 0.50 0.47 0.46 0.48 0.46 0.44 0.44 0.42 0.40 0.40 0.42 0.42 0.42 0.40 0.37 0.33 0.35 0.32 0.34 0.31 0.32 0.30 0.22 0.21 0.22 0.26 0.31 0.27 0.30 0.28 0.31 0.29 0.38 0.41 0.40 0.39 0.35 0.39 0.34 0.35 0.38 0.51 0.60 0.62 0.63 0.64 0.63 0.64 0.64 0.64 0.64 0.65 0.63 0.63 0.62 0.64
0.80 0.76 0.74 0.69 0.57 0.52 0.52 0.55 0.61 0.64 0.65 0.65 0.64 0.63 0.60 0.62 0.67 0.61 0.60 0.61 0.65 0.66 0.64 0.65 0.57 0.44 0.34 0.44 0.34 0.37 0.47 0.46 0.47 0.46 0.46 0.47 0.48 0.46 0.44 0.41 0.41 0.41 0.40 0.39 0.42 0.36 0.36 0.33 0.34 0.29 0.31 0.33 0.34 0.34 0.25 0.23 0.26 0.26 0.28 0.28 0.29 0.33 0.33 0.30 0.29 0.38 0.37 0.37 0.34 0.37 0.35 0.36 0.40 0.49 0.56 0.60 0.64 0.63 0.62 0.65 0.63 0.63 0.64 0.63 0.62 0.62 0.62 0.64
0.77 0.75 0.71 0.70 0.60 0.52 0.51 0.56 0.62 0.65 0.67 0.67 0.66 0.67 0.66 0.65 0.63 0.62 0.57 0.55 0.46 0.42 0.37 0.41 0.42 0.30 0.25 0.36 0.46 0.48 0.48 0.50 0.50 0.46 0.43 0.46 0.48 0.48 0.47 0.46 0.43 0.38 0.34 0.35 0.36 0.36 0.36 0.34 0.34 0.29 0.27 0.30 0.33 0.33 0.30 0.31 0.32 0.30 0.30 0.29 0.29 0.27 0.28 0.28 0.32 0.38 0.37 0.35 0.35 0.35 0.34 0.38 0.43 0.49 0.55 0.60 0.63 0.62 0.62 0.66 0.64 0.65 0.64 0.63 0.62 0.62 0.63 0.64
0.73 0.71 0.68 0.71 0.61 0.52 0.49 0.56 0.64 0.66 0.67 0.64 0.60 0.57 0.54 0.45 0.42 0.39 0.49 0.52 0.44 0.42 0.43 0.43 0.46 0.45 0.46 0.45 0.44 0.51 0.57 0.51 0.40 0.42 0.45 0.49 0.47 0.44 0.43 0.42 0.38 0.37 0.34 0.30 0.35 0.36 0.37 0.28 0.26 0.26 0.29 0.32 0.36 0.38 0.36 0.35 0.34 0.33 0.32 0.30 0.28 0.27 0.28 0.33 0.34 0.39 0.43 0.36 0.38 0.39 0.39 0.41 0.44 0.48 0.53 0.59 0.63 0.62 0.62 0.62 0.62 0.63 0.63 0.62 0.62 0.62 0.63 0.64
0.67 0.65 0.65 0.69 0.62 0.53 0.48 0.55 0.64 0.66 0.68 0.64 0.59 0.48 0.36 0.39 0.30 0.29 0.42 0.42 0.49 0.50 0.46 0.46 0.47 0.45 0.43 0.47 0.50 0.48 0.42 0.43 0.44 0.41 0.44 0.50 0.47 0.42 0.39 0.39 0.35 0.30 0.33 0.35 0.33 0.39 0.35 0.29 0.29 0.34 0.36 0.38 0.39 0.38 0.37 0.35 0.35 0.32 0.31 0.29 0.27 0.28 0.25 0.32 0.32 0.39 0.44 0.35 0.36 0.42 0.39 0.41 0.44 0.48 0.52 0.58 0.60 0.59 0.60 0.60 0.63 0.64 0.65 0.64 0.63 0.62 0.63 0.65
0.61 0.61 0.63 0.67 0.61 0.53 0.49 0.54 0.65 0.65 0.67 0.63 0.54 0.44 0.50 0.54 0.60 0.64 0.57 0.37 0.46 0.51 0.50 0.50 0.53 0.48 0.54 0.52 0.53 0.54 0.50 0.40 0.39 0.43 0.49 0.49 0.45 0.38 0.38 0.36 0.32 0.27 0.33 0.34 0.34 0.31 0.30 0.28 0.35 0.38 0.39 0.40 0.39 0.37 0.36 0.32 0.31 0.32 0.29 0.29 0.26 0.28 0.31 0.34 0.34 0.38 0.40 0.37 0.35 0.40 0.37 0.40 0.44 0.48 0.53 0.55 0.58 0.63 0.66 0.65 0.65 0.66 0.65 0.66 0.67 0.65 0.63 0.64
0.60 0.61 0.63 0.66 0.60 0.53 0.49 0.54 0.64 0.64 0.59 0.54 0.47 0.49 0.48 0.64 0.75 0.76 0.66 0.50 0.44 0.53 0.50 0.50 0.46 0.47 0.48 0.54 0.54 0.55 0.40 0.36 0.36 0.41 0.44 0.47 0.43 0.40 0.36 0.34 0.31 0.31 0.31 0.32 0.28 0.28 0.26 0.30 0.36 0.41 0.40 0.37 0.34 0.35 0.34 0.32 0.32 0.29 0.28 0.25 0.23 0.28 0.25 0.23 0.32 0.37 0.39 0.35 0.33 0.38 0.36 0.39 0.45 0.50 0.51 0.58 0.61 0.65 0.69 0.69 0.69 0.69 0.67 0.68 0.68 0.66 0.63 0.62
0.58 0.61 0.63 0.63 0.59 0.51 0.49 0.52 0.63 0.58 0.54 0.53 0.52 0.51 0.64 0.70 0.73 0.74 0.55 0.43 0.40 0.48 0.52 0.54 0.53 0.50 0.47 0.44 0.50 0.47 0.40 0.38 0.40 0.38 0.51 0.47 0.38 0.42 0.37 0.36 0.32 0.31 0.29 0.32 0.31 0.30 0.30 0.35 0.41 0.39 0.37 0.34 0.30 0.32 0.31 0.29 0.27 0.28 0.27 0.26 0.26 0.27 0.29 0.27 0.29 0.34 0.37 0.39 0.41 0.38 0.35 0.35 0.40 0.40 0.44 0.52 0.58 0.60 0.63 0.67 0.69 0.70 0.71 0.73 0.73 0.69 0.66 0.63
0.58 0.61 0.62 0.61 0.57 0.52 0.47 0.55 0.49 0.50 0.54 0.51 0.50 0.61 0.66 0.68 0.74 0.77 0.53 0.49 0.48 0.46 0.60 0.53 0.54 0.52 0.53 0.59 0.52 0.43 0.42 0.42 0.43 0.46 0.50 0.47 0.41 0.41 0.36 0.40 0.35 0.31 0.31 0.34 0.33 0.32 0.32 0.38 0.40 0.36 0.34 0.33 0.31 0.29 0.30 0.29 0.25 0.26 0.28 0.27 0.27 0.29 0.28 0.29 0.32 0.30 0.28 0.28 0.36 0.32 0.23 0.26 0.37 0.40 0.43 0.48 0.50 0.50 0.56 0.58 0.62 0.64 0.65 0.70 0.67 0.66 0.67 0.67
0.59 0.61 0.62 0.60 0.58 0.50 0.47 0.45 0.41 0.51 0.45 0.40 0.50 0.62 0.65 0.67 0.79 0.82 0.59 0.43 0.34 0.42 0.49 0.40 0.54 0.44 0.64 0.47 0.48 0.45 0.45 0.36 0.46 0.48 0.51 0.48 0.52 0.42 0.40 0.36 0.37 0.30 0.34 0.33 0.33 0.34 0.34 0.38 0.37 0.33 0.33 0.32 0.32 0.30 0.32 0.31 0.26 0.23 0.25 0.29 0.29 0.29 0.29 0.29 0.29 0.28 0.23 0.20 0.32 0.38 0.21 0.19 0.33 0.35 0.40 0.46 0.47 0.47 0.52 0.55 0.59 0.61 0.62 0.66 0.67 0.66 0.65 0.65
0.60 0.60 0.61 0.58 0.58 0.53 0.32 0.27 0.46 0.50 0.38 0.43 0.58 0.63 0.65 0.67 0.86 0.77 0.54 0.35 0.30 0.44 0.42 0.51 0.51 0.51 0.57 0.47 0.48 0.47 0.31 0.35 0.48 0.51 0.48 0.50 0.45 0.50 0.36 0.34 0.37 0.38 0.38 0.36 0.31 0.29 0.37 0.35 0.35 0.36 0.33 0.32 0.30 0.28 0.32 0.32 0.26 0.22 0.30 0.30 0.29 0.28 0.27 0.27 0.28 0.27 0.25 0.32 0.36 0.36 0.31 0.22 0.23 0.32 0.42 0.46 0.44 0.45 0.46 0.51 0.55 0.57 0.60 0.64 0.66 0.66 0.66 0.65
0.60 0.60 0.59 0.58 0.56 0.54 0.38 0.43 0.44 0.41 0.42 0.52 0.62 0.64 0.66 0.73 0.84 0.75 0.43 0.20 0.21 0.52 0.43 0.52 0.52 0.64 0.54 0.50 0.49 0.41 0.40 0.46 0.38 0.44 0.49 0.51 0.50 0.44 0.39 0.35 0.34 0.34 0.36 0.33 0.23 0.35 0.35 0.33 0.34 0.32 0.33 0.31 0.29 0.32 0.34 0.34 0.27 0.25 0.30 0.32 0.29 0.28 0.28 0.28 0.27 0.27 0.28 0.26 0.22 0.30 0.37 0.25 0.24 0.34 0.44 0.45 0.38 0.40 0.43 0.47 0.50 0.54 0.58 0.62 0.65 0.65 0.66 0.66
0.58 0.58 0.59 0.58 0.56 0.52 0.54 0.47 0.45 0.40 0.52 0.59 0.64 0.65 0.70 0.78 0.76 0.55 0.34 0.18 0.45 0.47 0.69 0.49 0.72 0.57 0.52 0.52 0.45 0.45 0.43 0.46 0.36 0.43 0.49 0.50 0.51 0.44 0.36 0.38 0.38 0.37 0.37 0.35 0.29 0.34 0.38 0.37 0.37 0.36 0.32 0.29 0.33 0.36 0.36 0.34 0.26 0.30 0.33 0.33 0.32 0.32 0.31 0.30 0.27 0.27 0.28 0.24 0.20 0.28 0.36 0.24 0.26 0.35 0.39 0.44 0.40 0.39 0.43 0.47 0.49 0.53 0.57 0.61 0.62 0.64 0.65 0.63
0.55 0.58 0.60 0.58 0.52 0.50 0.50 0.55 0.47 0.55 0.61 0.63 0.67 0.71 0.78 0.80 0.61 0.34 0.22 0.16 0.48 0.38 0.55 0.55 0.51 0.45 0.51 0.41 0.40 0.45 0.40 0.41 0.43 0.44 0.46 0.42 0.44 0.48 0.44 0.47 0.39 0.37 0.35 0.39 0.36 0.38 0.40 0.46 0.44 0.38 0.34 0.35 0.35 0.36 0.37 0.35 0.32 0.34 0.31 0.28 0.28 0.28 0.28 0.30 0.29 0.28 0.25 0.19 0.23 0.31 0.36 0.34 0.26 0.35 0.39 0.38 0.39 0.45 0.47 0.47 0.51 0.55 0.58 0.61 0.62 0.63 0.60 0.59
0.56 0.59 0.59 0.57 0.45 0.49 0.52 0.44 0.50 0.63 0.65 0.67 0.70 0.72 0.72 0.56 0.38 0.27 0.19 0.31 0.50 0.48 0.55 0.52 0.48 0.55 0.44 0.40 0.35 0.40 0.39 0.39 0.40 0.42 0.38 0.43 0.41 0.43 0.41 0.38 0.42 0.35 0.34 0.35 0.35 0.38 0.39 0.40 0.38 0.41 0.43 0.39 0.37 0.34 0.38 0.37 0.34 0.31 0.26 0.24 0.23 0.23 0.27 0.25 0.25 0.28 0.18 0.16 0.26 0.36 0.34 0.37 0.24 0.32 0.44 0.49 0.53 0.54 0.54 0.48 0.50 0.53 0.56 0.57 0.60 0.59 0.59 0.58
0.59 0.59 0.55 0.50 0.54 0.62 0.47 0.42 0.57 0.65 0.66 0.69 0.65 0.64 0.58 0.30 0.37 0.23 0.24 0.54 0.30 0.41 0.42 0.43 0.50 0.46 0.44 0.43 0.37 0.38 0.36 0.39 0.41 0.40 0.36 0.37 0.36 0.35 0.36 0.30 0.33 0.25 0.25 0.28 0.29 0.38 0.35 0.36 0.42 0.41 0.44 0.38 0.33 0.30 0.32 0.34 0.32 0.29 0.26 0.23 0.16 0.14 0.17 0.14 0.20 0.15 0.16 0.16 0.28 0.35 0.37 0.30 0.30 0.39 0.48 0.52 0.55 0.57 0.56 0.53 0.53 0.55 0.55 0.56 0.57 0.58 0.58 0.57
0.59 0.53 0.50 0.53 0.62 0.62 0.61 0.62 0.65 0.65 0.68 0.65 0.56 0.54 0.37 0.22 0.17 0.32 0.33 0.38 0.30 0.43 0.41 0.52 0.46 0.45 0.42 0.39 0.37 0.41 0.44 0.36 0.42 0.40 0.40 0.39 0.36 0.36 0.39 0.37 0.37 0.32 0.23 0.29 0.27 0.29 0.31 0.37 0.37 0.38 0.37 0.40 0.35 0.26 0.25 0.25 0.29 0.26 0.23 0.20 0.16 0.12 0.11 0.10 0.14 0.19 0.19 0.25 0.34 0.33 0.40 0.28 0.37 0.44 0.51 0.49 0.56 0.58 0.55 0.55 0.57 0.56 0.56 0.56 0.55 0.56 0.56 0.54
0.56 0.53 0.51 0.61 0.69 0.70 0.71 0.71 0.67 0.67 0.63 0.56 0.50 0.38 0.32 0.20 0.20 0.44 0.37 0.38 0.35 0.47 0.47 0.43 0.44 0.44 0.42 0.36 0.41 0.44 0.37 0.42 0.41 0.40 0.41 0.36 0.36 0.32 0.35 0.38 0.38 0.34 0.33 0.30 0.24 0.25 0.20 0.22 0.29 0.33 0.29 0.40 0.35 0.32 0.31 0.28 0.28 0.27 0.30 0.25 0.19 0.17 0.13 0.10 0.13 0.11 0.14 0.19 0.27 0.36 0.28 0.25 0.28 0.35 0.53 0.55 0.59 0.60 0.58 0.59 0.60 0.62 0.63 0.59 0.56 0.55 0.54 0.50
0.55 0.57 0.65 0.70 0.73 0.73 0.74 0.70 0.68 0.69 0.62 0.50 0.39 0.31 0.20 0.21 0.32 0.31 0.33 0.36 0.40 0.43 0.41 0.49 0.44 0.42 0.41 0.42 0.46 0.46 0.43 0.37 0.43 0.39 0.37 0.35 0.32 0.33 0.33 0.34 0.38 0.38 0.36 0.26 0.29 0.27 0.24 0.24 0.32 0.40 0.38 0.41 0.34 0.38 0.38 0.33 0.29 0.30 0.31 0.29 0.23 0.19 0.25 0.16 0.19 0.18 0.19 0.21 0.21 0.26 0.26 0.36 0.35 0.50 0.57 0.58 0.58 0.58 0.57 0.58 0.60 0.58 0.55 0.52 0.49 0.47 0.47 0.48
0.53 0.58 0.71 0.63 0.64 0.67 0.75 0.71 0.71 0.69 0.58 0.42 0.30 0.24 0.24 0.31 0.30 0.40 0.37 0.46 0.43 0.37 0.39 0.42 0.43 0.38 0.39 0.40 0.45 0.43 0.50 0.39 0.41 0.39 0.37 0.37 0.37 0.34 0.39 0.38 0.36 0.38 0.33 0.28 0.30 0.23 0.26 0.23 0.35 0.40 0.43 0.38 0.37 0.39 0.36 0.36 0.20 0.26 0.26 0.20 0.23 0.32 0.27 0.21 0.22 0.25 0.25 0.22 0.19 0.32 0.31 0.36 0.45 0.42 0.51 0.56 0.55 0.52 0.51 0.49 0.47 0.46 0.46 0.45 0.43 0.44 0.45 0.46
0.48 0.59 0.55 0.62 0.62 0.71 0.75 0.75 0.74 0.65 0.55 0.39 0.28 0.23 0.35 0.39 0.45 0.44 0.46 0.42 0.42 0.43 0.38 0.31 0.35 0.36 0.35 0.36 0.38 0.41 0.42 0.44 0.40 0.38 0.32 0.39 0.33 0.38 0.37 0.38 0.43 0.39 0.38 0.35 0.29 0.34 0.24 0.25 0.36 0.35 0.32 0.39 0.43 0.39 0.37 0.37 0.35 0.29 0.21 0.24 0.31 0.35 0.29 0.21 0.14 0.18 0.17 0.13 0.17 0.26 0.25 0.28 0.29 0.25 0.43 0.48 0.49 0.46 0.44 0.43 0.44 0.44 0.43 0.41 0.42 0.43 0.45 0.45
0.48 0.52 0.55 0.56 0.62 0.73 0.78 0.79 0.73 0.59 0.47 0.36 0.28 0.31 0.45 0.37 0.49 0.47 0.49 0.46 0.45 0.43 0.35 0.32 0.35 0.40 0.33 0.34 0.34 0.37 0.41 0.36 0.36 0.36 0.32 0.36 0.30 0.43 0.39 0.37 0.43 0.41 0.41 0.42 0.30 0.31 0.32 0.22 0.29 0.35 0.35 0.39 0.44 0.40 0.33 0.37 0.38 0.28 0.24 0.31 0.19 0.13 0.11 0.19 0.17 0.11 0.11 0.11 0.15 0.20 0.26 0.28 0.31 0.29 0.36 0.40 0.44 0.43 0.42 0.43 0.42 0.41 0.41 0.41 0.42 0.44 0.45 0.47
0.49 0.50 0.42 0.51 0.68 0.73 0.75 0.78 0.65 0.52 0.39 0.30 0.30 0.29 0.40 0.43 0.51 0.48 0.49 0.48 0.48 0.40 0.34 0.36 0.32 0.37 0.36 0.33 0.35 0.39 0.39 0.32 0.37 0.35 0.31 0.36 0.30 0.42 0.39 0.41 0.38 0.42 0.41 0.39 0.33 0.33 0.34 0.23 0.25 0.35 0.35 0.38 0.38 0.35 0.25 0.30 0.36 0.37 0.36 0.24 0.22 0.17 0.14 0.11 0.16 0.18 0.17 0.12 0.13 0.15 0.22 0.19 0.33 0.33 0.36 0.37 0.42 0.41 0.39 0.39 0.39 0.40 0.41 0.42 0.43 0.44 0.45 0.46
0.41 0.38 0.29 0.54 0.64 0.70 0.73 0.68 0.54 0.45 0.36 0.27 0.33 0.35 0.45 0.41 0.48 0.52 0.52 0.47 0.41 0.38 0.36 0.37 0.40 0.33 0.37 0.36 0.38 0.34 0.38 0.37 0.36 0.36 0.35 0.39 0.35 0.45 0.39 0.45 0.38 0.40 0.42 0.41 0.35 0.38 0.29 0.32 0.20 0.30 0.37 0.36 0.27 0.34 0.29 0.31 0.28 0.29 0.28 0.24 0.18 0.13 0.19 0.19 0.22 0.19 0.16 0.14 0.14 0.14 0.13 0.20 0.32 0.42 0.38 0.37 0.39 0.39 0.39 0.39 0.40 0.41 0.43 0.44 0.44 0.45 0.45 0.46
0.51 0.38 0.32 0.57 0.62 0.70 0.65 0.51 0.40 0.34 0.33 0.40 0.44 0.40 0.44 0.42 0.48 0.50 0.52 0.51 0.45 0.50 0.42 0.40 0.38 0.34 0.35 0.35 0.35 0.40 0.35 0.36 0.37 0.35 0.36 0.38 0.39 0.33 0.43 0.42 0.43 0.39 0.43 0.40 0.37 0.37 0.29 0.30 0.24 0.28 0.28 0.28 0.31 0.40 0.38 0.36 0.34 0.31 0.29 0.25 0.23 0.14 0.09 0.08 0.09 0.20 0.18 0.16 0.14 0.13 0.11 0.20 0.34 0.42 0.40 0.38 0.39 0.39 0.40 0.40 0.41 0.42 0.44 0.44 0.44 0.45 0.46 0.44
0.33 0.23 0.29 0.60 0.66 0.66 0.47 0.33 0.35 0.43 0.37 0.35 0.35 0.42 0.40 0.54 0.47 0.48 0.50 0.52 0.48 0.43 0.50 0.42 0.42 0.38 0.37 0.36 0.37 0.38 0.36 0.34 0.36 0.36 0.38 0.34 0.41 0.39 0.43 0.48 0.44 0.45 0.41 0.34 0.34 0.42 0.36 0.33 0.28 0.25 0.28 0.30 0.36 0.42 0.46 0.44 0.40 0.37 0.34 0.29 0.29 0.23 0.20 0.15 0.10 0.12 0.14 0.17 0.20 0.19 0.14 0.16 0.33 0.37 0.38 0.38 0.37 0.37 0.39 0.41 0.40 0.41 0.41 0.42 0.42 0.44 0.44 0.44
0.30 0.24 0.53 0.62 0.64 0.59 0.39 0.29 0.35 0.34 0.34 0.39 0.49 0.49 0.53 0.49 0.46 0.49 0.46 0.49 0.43 0.48 0.44 0.40 0.38 0.36 0.39 0.38 0.39 0.37 0.38 0.34 0.37 0.35 0.38 0.40 0.40 0.44 0.46 0.45 0.47 0.44 0.44 0.39 0.41 0.42 0.44 0.32 0.27 0.28 0.34 0.38 0.41 0.45 0.45 0.45 0.42 0.36 0.36 0.35 0.31 0.26 0.24 0.21 0.20 0.21 0.16 0.18 0.15 0.14 0.11 0.14 0.26 0.35 0.34 0.34 0.35 0.36 0.37 0.37 0.37 0.37 0.39 0.40 0.40 0.41 0.42 0.41
0.37 0.40 0.47 0.61 0.66 0.54 0.35 0.22 0.23 0.29 0.33 0.40 0.40 0.40 0.49 0.46 0.44 0.42 0.43 0.47 0.44 0.44 0.41 0.41 0.41 0.43 0.39 0.43 0.41 0.37 0.41 0.31 0.39 0.39 0.38 0.43 0.39 0.49 0.47 0.45 0.48 0.41 0.41 0.39 0.36 0.45 0.31 0.34 0.29 0.24 0.24 0.28 0.32 0.37 0.38 0.43 0.41 0.35 0.32 0.36 0.35 0.32 0.30 0.28 0.26 0.26 0.20 0.20 0.20 0.16 0.11 0.15 0.26 0.31 0.32 0.32 0.33 0.33 0.34 0.36 0.36 0.35 0.36 0.38 0.39 0.40 0.40 0.40
0.42 0.48 0.49 0.52 0.57 0.54 0.32 0.36 0.32 0.31 0.31 0.32 0.33 0.31 0.36 0.38 0.44 0.43 0.42 0.42 0.50 0.47 0.44 0.42 0.43 0.44 0.41 0.46 0.42 0.44 0.44 0.39 0.35 0.44 0.42 0.42 0.42 0.50 0.48 0.47 0.49 0.43 0.46 0.47 0.45 0.46 0.34 0.32 0.28 0.21 0.19 0.17 0.17 0.19 0.22 0.27 0.31 0.35 0.37 0.35 0.35 0.32 0.28 0.26 0.23 0.23 0.19 0.22 0.23 0.19 0.17 0.22 0.28 0.30 0.30 0.32 0.32 0.33 0.35 0.36 0.37 0.38 0.37 0.36 0.36 0.38 0.38 0.39
0.33 0.25 0.40 0.39 0.47 0.47 0.45 0.48 0.41 0.36 0.34 0.34 0.31 0.34 0.36 0.31 0.38 0.43 0.44 0.41 0.47 0.46 0.44 0.45 0.47 0.46 0.42 0.41 0.39 0.40 0.39 0.46 0.39 0.38 0.40 0.39 0.41 0.45 0.49 0.48 0.47 0.45 0.48 0.51 0.47 0.44 0.37 0.37 0.34 0.30 0.27 0.24 0.26 0.31 0.38 0.39 0.36 0.30 0.32 0.32 0.32 0.33 0.32 0.28 0.27 0.23 0.21 0.23 0.21 0.22 0.21 0.21 0.23 0.26 0.28 0.31 0.32 0.32 0.32 0.35 0.35 0.36 0.36 0.37 0.38 0.38 0.39 0.39
0.44 0.28 0.31 0.26 0.39 0.43 0.38 0.41 0.37 0.38 0.32 0.39 0.31 0.36 0.30 0.33 0.35 0.35 0.46 0.34 0.45 0.41 0.41 0.42 0.42 0.37 0.39 0.39 0.38 0.38 0.40 0.39 0.44 0.41 0.40 0.40 0.43 0.45 0.51 0.49 0.48 0.49 0.54 0.53 0.51 0.45 0.38 0.33 0.34 0.35 0.34 0.35 0.37 0.38 0.40 0.39 0.33 0.34 0.32 0.31 0.32 0.32 0.32 0.27 0.25 0.23 0.28 0.24 0.18 0.23 0.24 0.21 0.21 0.24 0.26 0.28 0.30 0.32 0.33 0.34 0.35 0.35 0.36 0.37 0.38 0.39 0.40 0.40
0.29 0.36 0.40 0.44 0.28 0.26 0.29 0.31 0.38 0.35 0.37 0.39 0.33 0.39 0.33 0.32 0.33 0.28 0.38 0.44 0.43 0.46 0.35 0.41 0.42 0.44 0.44 0.41 0.41 0.35 0.36 0.36 0.37 0.36 0.42 0.44 0.43 0.46 0.44 0.48 0.45 0.48 0.52 0.50 0.53 0.44 0.37 0.31 0.36 0.36 0.34 0.37 0.39 0.39 0.41 0.39 0.36 0.35 0.35 0.34 0.32 0.34 0.32 0.28 0.27 0.28 0.28 0.23 0.20 0.24 0.26 0.23 0.24 0.26 0.28 0.29 0.30 0.32 0.33 0.34 0.36 0.38 0.39 0.39 0.39 0.39 0.39 0.39
0.42 0.43 0.40 0.46 0.32 0.34 0.34 0.37 0.38 0.35 0.34 0.36 0.34 0.34 0.31 0.32 0.30 0.34 0.33 0.33 0.36 0.37 0.42 0.31 0.37 0.43 0.45 0.48 0.44 0.38 0.38 0.32 0.33 0.40 0.41 0.42 0.42 0.43 0.41 0.43 0.47 0.50 0.50 0.49 0.48 0.50 0.41 0.36 0.38 0.39 0.36 0.37 0.37 0.39 0.41 0.38 0.38 0.36 0.35 0.35 0.36 0.34 0.32 0.31 0.29 0.29 0.28 0.25 0.27 0.27 0.27 0.25 0.28 0.29 0.30 0.32 0.34 0.35 0.37 0.39 0.40 0.39 0.39 0.39 0.39 0.39 0.39 0.40
0.31 0.30 0.28 0.41 0.36 0.34 0.36 0.35 0.34 0.34 0.30 0.36 0.29 0.34 0.35 0.34 0.31 0.35 0.39 0.34 0.28 0.32 0.45 0.36 0.39 0.43 0.45 0.46 0.44 0.38 0.41 0.40 0.40 0.37 0.45 0.44 0.44 0.46 0.43 0.43 0.43 0.49 0.50 0.45 0.46 0.52 0.41 0.35 0.42 0.40 0.35 0.35 0.38 0.40 0.40 0.39 0.37 0.34 0.35 0.35 0.34 0.33 0.32 0.32 0.30 0.30 0.30 0.27 0.28 0.28 0.27 0.25 0.32 0.36 0.35 0.37 0.38 0.40 0.40 0.39 0.40 0.41 0.41 0.40 0.39 0.39 0.40 0.40
0.45 0.45 0.41 0.28 0.23 0.28 0.30 0.30 0.28 0.30 0.29 0.33 0.29 0.34 0.35 0.36 0.35 0.38 0.35 0.41 0.34 0.31 0.37 0.35 0.41 0.41 0.45 0.44 0.44 0.43 0.48 0.47 0.47 0.48 0.50 0.49 0.42 0.50 0.44 0.45 0.50 0.44 0.46 0.45 0.46 0.47 0.45 0.38 0.43 0.39 0.32 0.31 0.37 0.37 0.38 0.39 0.38 0.35 0.32 0.31 0.30 0.30 0.28 0.30 0.28 0.31 0.28 0.26 0.27 0.28 0.25 0.26 0.33 0.38 0.39 0.39 0.39 0.39 0.39 0.40 0.41 0.41 0.42 0.42 0.40 0.40 0.41 0.42
0.49 0.51 0.48 0.33 0.20 0.29 0.25 0.31 0.30 0.27 0.24 0.34 0.35 0.36 0.34 0.36 0.40 0.41 0.30 0.40 0.43 0.46 0.44 0.43 0.44 0.41 0.40 0.39 0.39 0.44 0.50 0.52 0.53 0.55 0.56 0.58 0.59 0.58 0.58 0.57 0.55 0.49 0.46 0.45 0.49 0.43 0.43 0.40 0.36 0.36 0.30 0.30 0.37 0.39 0.38 0.37 0.34 0.29 0.29 0.30 0.32 0.33 0.32 0.32 0.33 0.34 0.32 0.31 0.27 0.24 0.25 0.32 0.36 0.38 0.36 0.37 0.39 0.40 0.41 0.41 0.41 0.42 0.42 0.42 0.41 0.41 0.42 0.44
Wind_Speed
17 16 16 16 16 16 16 16 15 15 14 14 13 12 12 12 11 11 10 9 9 9 9 9 8 7 6 6 6 6 6 4 3 2 0 1 2 3 2 2 2 1 1 1 1 1 1 0 0 1 2 2 2 2 3 3 3 2 2 1 2 3 3 4 5 6 5 6 8 7 6 6 8 8 7 7 6 5 6 6 7 7 7 8 8 9 9 10
17 17 16 16 16 16 16 16 16 15 15 14 13 12 12 12 11 11 10 10 9 9 9 8 8 7 6 6 6 6 5 3 2 1 0 1 2 3 2 2 1 1 0 1 1 1 1 2 2 2 2 3 3 3 2 3 2 2 2 2 3 5 4 5 6 6 5 6 8 7 6 7 8 9 8 8 9 7 6 8 8 7 7 8 8 9 9 10
17 17 17 16 16 17 17 16 16 15 15 14 13 13 12 11 11 11 10 10 9 9 8 8 7 6 5 5 5 5 4 2 1 0 1 1 2 3 3 2 1 1 0 1 1 1 1 3 3 2 2 2 3 3 2 3 3 3 2 2 5 6 5 5 5 6 6 6 7 7 7 7 8 9 9 9 9 8 8 10 9 7 8 8 9 9 9 9
18 17 17 17 17 17 17 17 16 16 15 15 14 13 12 11 11 10 10 9 9 8 8 7 6 6 5 5 5 5 3 2 1 2 2 2 3 3 3 2 1 1 1 1 1 1 2 2 2 2 2 2 3 3 3 3 3 3 2 3 5 4 4 5 6 6 6 6 6 7 7 7 8 8 8 9 9 10 11 10 9 8 8 8 9 9 9 9
18 18 18 17 17 17 17 17 16 16 16 15 14 13 12 11 10 10 10 9 8 8 7 7 6 6 6 6 5 5 3 2 3 3 3 2 3 3 3 2 2 2 2 2 2 1 2 2 1 2 2 2 3 3 3 4 3 2 3 3 4 3 4 6 6 6 6 6 6 6 7 8 8 7 8 8 9 11 11 10 8 8 8 8 8 9 9 8
19 18 18 18 18 17 17 17 17 17 16 16 15 14 12 11 10 10 9 9 8 8 7 6 6 6 6 6 5 4 3 2 4 4 3 4 4 3 3 2 2 2 2 2 2 1 1 2 1 2 3 3 3 3 3 3 3 2 3 3 3 4 4 5 6 6 6 6 7 7 7 7 6 7 8 7 8 9 9 8 7 7 7 7 7 8 8 8
19 19 19 19 18 18 18 18 17 17 17 16 15 14 12 11 10 9 9 8 8 7 7 6 6 6 6 6 5 4 3 4 5 4 4 4 4 3 3 3 3 2 3 3 2 2 2 2 2 3 3 3 4 3 3 3 2 2 2 3 3 4 5 5 5 6 6 6 8 7 7 7 5 7 7 5 6 7 6 6 6 6 6 6 7 7 7 8
20 20 19 19 19 19 19 18 18 17 17 16 15 14 13 11 10 9 9 8 8 7 6 6 6 6 6 5 5 4 4 5 4 3 3 4 4 3 3 3 3 3 3 3 3 2 2 2 2 3 3 3 4 4 3 2 2 2 3 4 4 5 6 5 5 5 6 6 7 5 5 6 3 4 6 6 6 6 6 6 5 6 6 6 6 6 7 7
20 20 20 20 20 20 19 19 18 18 17 16 15 14 12 11 10 9 8 8 8 7 7 6 6 6 6 5 4 4 4 5 4 2 2 4 4 4 4 4 4 4 4 4 3 2 3 3 4 4 3 4 3 3 3 2 3 4 4 4 5 6 6 6 5 6 6 6 6 4 4 4 3 3 6 8 7 6 6 5 5 5 5 5 5 5 6 6
20 20 20 20 20 20 20 20 19 18 17 16 15 14 12 11 10 9 8 8 7 7 7 6 6 6 5 5 4 3 4 4 3 3 2 3 4 5 5 5 5 5 5 4 4 3 3 3 5 4 3 4 3 4 3 3 4 5 4 4 5 6 6 6 6 7 7 7 5 4 4 6 6 6 7 8 7 6 6 5 5 5 3 4 4 5 5 6
20 20 20 21 21 21 20 20 19 18 17 16 15 14 12 11 10 9 8 8 7 7 6 5 5 5 5 5 3 3 4 4 3 3 3 4 5 6 6 6 5 6 6 6 5 5 5 5 5 5 4 5 4 4 4 4 4 5 4 4 7 7 6 7 7 8 8 7 5 4 5 7 8 6 7 8 7 7 6 5 5 4 3 3 4 5 6 7
20 20 21 21 21 21 21 20 19 18 17 16 15 14 13 11 10 9 8 7 6 6 5 5 5 5 5 5 3 3 4 4 4 4 3 4 5 6 6 6 6 6 6 6 7 6 6 6 5 5 6 5 5 5 4 5 4 4 4 5 8 7 6 8 8 9 8 7 7 6 7 8 8 6 6 7 7 6 5 5 5 4 4 4 4 5 6 7
21 21 21 21 21 22 21 21 19 17 16 15 15 14 12 11 9 8 7 7 6 5 4 4 4 5 5 4 3 4 4 4 4 4 4 4 5 6 6 7 7 7 6 7 7 6 5 5 5 5 6 5 5 5 4 5 4 5 6 5 7 7 7 8 9 9 7 7 9 7 7 9 8 6 6 6 7 6 5 5 5 5 4 4 5 6 6 7
21 21 21 21 22 22 22 21 19 18 16 15 15 14 12 10 9 8 7 6 5 4 4 3 4 4 4 4 3 4 4 4 4 4 5 4 5 6 6 6 6 6 6 6 6 5 4 4 4 4 5 5 5 5 4 5 4 5 6 5 6 6 8 9 9 8 7 8 9 7 8 10 10 9 8 8 7 7 6 6 6 6 5 5 6 6 6 7
20 21 21 21 22 22 22 21 19 18 17 16 15 14 12 10 8 8 7 6 5 4 3 3 4 4 5 4 3 4 4 4 4 4 4 4 4 5 5 5 5 5 5 5 6 5 5 4 3 4 5 5 4 3 4 5 5 5 5 7 7 6 8 10 9 8 8 9 9 7 9 10 10 11 10 9 8 8 8 8 7 6 6 5 6 6 6 7
20 21 21 21 21 21 21 20 19 18 18 17 16 14 11 9 8 7 7 7 6 4 4 4 4 4 4 4 4 4 4 3 4 4 4 3 3 4 4 4 4 4 4 5 5 5 5 4 3 4 5 4 4 4 4 5 6 6 5 6 8 7 8 10 9 10 10 10 10 9 9 10 10 10 10 9 9 8 8 9 8 7 6 6 6 6 6 7
21 21 21 21 21 21 21 19 19 18 17 17 16 13 11 8 7 7 6 7 6 5 5 4 4 4 4 4 4 4 4 4 5 4 4 3 3 4 4 4 4 5 5 4 4 4 4 3 4 4 4 4 4 4 5 6 7 7 7 7 8 8 9 10 10 11 10 9 10 9 8 9 10 9 9 9 9 8 9 10 9 8 7 6 6 6 7 7
21 21 22 22 21 21 21 19 18 18 17 17 15 13 11 8 7 6 7 8 6 5 5 4 4 4 4 4 3 4 5 5 5 4 3 3 3 3 3 4 5 5 4 3 3 3 3 3 3 4 4 4 4 3 4 6 6 7 7 7 8 9 9 10 11 11 11 10 9 8 7 8 8 8 9 9 9 10 11 11 9 8 8 7 7 6 7 7
22 22 22 22 22 21 21 19 18 18 17 16 14 12 10 9 8 7 8 8 6 4 4 4 4 2 3 4 4 5 5 5 4 3 3 3 3 3 4 4 5 4 3 3 4 4 3 3 3 3 4 5 5 3 4 6 6 6 7 7 8 9 10 11 11 11 9 8 9 8 7 7 7 7 8 9 10 11 12 11 10 8 7 7 7 7 7 7
21 22 22 22 22 21 21 19 18 18 17 15 14 12 10 11 10 8 9 8 4 4 4 4 3 3 4 4 4 5 5 4 3 3 3 3 3 3 4 5 5 4 3 4 5 4 3 3 3 4 6 6 6 5 5 6 6 6 7 8 8 9 10 11 10 11 8 7 9 8 7 7 7 8 8 9 10 11 12 11 10 9 8 7 7 7 7 7
21 22 22 22 22 21 21 19 17 17 16 14 14 12 10 11 9 8 9 7 5 4 4 3 3 4 5 5 5 5 4 3 3 3 3 3 3 4 5 6 5 4 5 5 5 4 3 2 4 5 6 5 5 5 4 6 6 7 7 8 9 9 9 10 10 10 9 7 8 8 7 7 8 9 9 9 10 11 12 12 11 10 9 8 8 8 8 8
21 22 22 22 22 21 21 19 17 16 15 14 14 12 10 10 8 7 6 5 5 4 3 4 4 4 5 5 5 3 3 3 3 3 3 4 5 5 6 5 4 4 5 5 4 4 3 3 5 5 4 3 4 5 5 5 6 7 8 8 9 10 10 11 11 10 9 7 8 8 7 8 10 10 9 9 10 11 12 12 12 11 10 9 9 8 8 7
21 21 21 22 22 22 21 18 16 15 14 13 13 12 11 11 9 7 4 4 5 4 3 4 4 4 5 5 4 2 2 2 3 4 4 4 5 5 4 4 4 4 5 4 3 3 3 4 6 4 3 2 4 6 6 6 7 7 8 8 10 11 10 10 10 10 9 8 7 7 7 9 10 10 10 10 11 12 13 13 11 11 11 10 9 8 7 6
21 21 21 22 22 22 21 17 14 14 14 13 12 12 13 12 9 6 3 2 3 4 3 3 4 4 4 4 2 1 3 3 2 4 5 4 4 4 3 3 3 4 5 4 2 2 3 5 5 3 3 3 4 6 6 6 9 10 9 9 10 10 9 9 9 9 9 9 8 7 7 10 10 10 10 11 12 13 14 12 11 11 10 9 9 8 7 6
21 21 21 22 21 22 20 15 13 15 15 13 12 14 14 12 9 5 3 2 3 4 4 3 4 3 3 3 2 2 3 3 2 3 4 4 4 4 4 4 4 5 5 3 2 2 3 5 4 3 4 4 4 6 7 6 9 11 10 9 10 10 10 9 9 8 8 9 9 7 8 10 11 10 11 12 12 12 12 11 10 10 9 9 8 7 6 6
21 21 21 21 21 22 18 13 14 15 14 13 13 15 14 11 8 4 2 2 2 4 4 3 4 3 3 3 2 2 3 3 3 3 4 4 5 5 4 5 5 4 4 4 3 3 4 5 4 3 4 5 5 6 7 6 8 10 11 10 10 10 9 9 8 7 8 8 9 8 8 10 10 11 12 12 11 11 10 10 10 9 8 9 8 7 7 6
20 21 21 20 21 21 16 13 15 15 13 13 14 15 13 10 7 3 3 4 4 5 4 4 3 3 3 3 2 2 3 4 4 4 4 5 6 5 5 6 5 4 5 4 3 4 5 5 4 4 5 5 5 7 7 7 8 10 11 10 9 9 9 9 7 7 8 8 9 9 8 9 10 11 12 12 11 10 10 10 10 9 8 8 8 7 7 6
20 21 20 20 20 19 15 14 15 14 13 15 15 15 13 9 5 3 3 3 4 5 3 3 3 3 4 3 2 2 2 3 3 4 5 5 6 5 4 4 3 4 5 3 4 6 5 4 4 4 5 5 6 7 8 7 8 10 10 9 8 9 9 8 7 7 8 8 9 11 9 9 10 11 11 10 10 9 10 10 10 9 9 8 8 7 7 6
20 20 20 19 19 16 14 14 14 13 14 15 16 15 12 8 5 4 4 3 5 4 3 3 3 4 4 2 2 3 3 3 3 4 5 5 6 5 4 4 3 4 5 3 3 5 4 4 5 4 5 6 6 8 7 7 9 10 8 8 9 9 9 8 7 7 8 8 9 11 10 8 10 10 9 9 8 9 9 10 10 9 9 8 8 8 7 7
20 20 19 19 17 15 14 14 14 14 15 16 15 13 11 8 6 5 4 4 4 4 3 4 3 4 4 2 3 4 3 3 4 4 5 5 6 6 4 4 4 4 5 4 3 4 5 5 5 4 5 6 6 7 7 7 9 9 8 9 10 10 9 8 8 7 7 9 10 11 9 7 8 8 8 8 8 9 9 10 9 9 9 9 8 7 7 7
19 19 19 18 16 14 14 14 14 14 15 16 14 12 10 9 7 5 4 4 4 4 4 4 4 4 4 2 3 4 3 4 5 4 5 6 6 7 6 5 5 5 5 5 4 5 5 5 6 6 6 6 6 6 7 8 9 9 8 9 8 9 9 8 8 7 7 9 10 10 8 5 6 7 8 8 9 9 9 9 9 9 9 8 8 7 7 8
19 19 18 16 14 13 13 14 15 15 15 15 13 11 9 9 8 6 5 5 5 5 4 3 4 3 3 2 2 3 3 4 5 4 4 5 5 6 6 5 4 5 6 4 4 5 5 5 7 7 7 6 6 6 8 9 10 9 9 8 7 8 8 8 8 8 7 8 8 8 7 5 5 7 7 8 9 8 7 8 9 8 8 7 8 8 8 8
19 19 17 14 13 13 13 14 15 16 15 14 11 10 9 9 8 6 5 5 5 5 4 4 4 3 1 2 3 4 4 4 5 5 4 4 5 6 6 5 4 5 5 4 4 5 5 7 8 7 7 7 5 6 8 9 10 9 8 7 6 7 7 8 8 8 8 8 8 8 6 4 5 5 5 7 9 8 6 6 7 7 8 8 8 8 8 9
19 17 15 13 13 13 13 14 15 15 15 13 10 10 10 9 7 6 6 5 5 5 5 4 4 3 2 2 3 5 4 5 5 5 5 5 5 6 6 7 6 5 5 4 4 5 5 7 7 6 7 7 6 6 6 7 8 9 7 6 6 5 5 7 7 7 8 7 7 7 5 3 4 4 4 5 7 7 6 6 7 8 9 9 8 8 9 9
18 15 13 14 14 14 14 15 15 15 14 11 10 10 9 8 7 7 6 5 5 5 5 4 3 3 3 4 4 5 4 5 5 5 5 5 5 6 6 7 7 6 5 5 6 5 4 6 7 7 7 6 6 7 6 6 7 8 7 6 7 6 5 7 7 6 7 7 7 7 4 4 3 3 4 4 4 5 6 6 6 7 8 7 7 8 8 9
16 14 13 14 15 15 15 15 14 14 13 10 9 9 8 7 7 6 6 6 5 5 5 5 4 3 4 5 5 6 6 6 6 5 6 6 6 6 6 6 6 6 5 5 6 6 5 6 7 7 6 5 6 6 6 6 7 7 7 7 6 5 5 6 7 7 8 7 7 6 4 4 4 4 4 4 4 4 5 5 5 5 6 6 7 8 9 10
14 13 14 15 15 16 15 14 14 14 12 10 9 8 7 7 6 6 7 7 6 5 4 4 4 3 4 5 6 8 8 7 6 6 6 7 7 6 6 7 6 6 6 6 7 6 4 5 7 5 5 6 6 5 6 7 6 7 7 7 6 6 6 6 6 8 8 7 7 5 4 4 5 5 4 5 5 5 5 5 6 6 7 8 9 9 10 11
13 13 14 15 16 16 15 14 15 13 11 10 9 7 7 7 7 6 7 7 6 6 5 4 4 4 4 5 7 8 8 7 7 7 6 7 7 6 6 7 6 7 7 6 7 7 4 5 7 6 5 7 7 5 6 8 7 6 6 6 6 5 6 6 6 7 7 7 7 6 5 5 6 6 6 6 6 6 7 7 8 8 9 9 10 10 11 12
13 13 14 15 16 16 15 14 14 13 11 10 8 7 7 7 7 8 8 7 6 6 5 5 5 5 4 5 6 7 8 7 7 7 6 6 6 6 6 6 7 8 8 7 6 7 5 4 6 7 6 6 6 5 5 7 8 8 7 8 7 5 5 6 6 6 6 6 7 6 6 5 6 7 8 8 8 8 9 9 9 10 10 10 11 12 12 13
12 12 13 15 16 16 15 14 14 12 11 9 7 7 7 7 8 9 9 7 6 6 6 5 5 5 5 6 6 7 7 7 7 6 7 6 6 7 6 6 6 7 8 7 6 6 6 5 5 7 7 5 5 4 4 5 7 8 7 8 7 6 5 5 5 6 5 5 5 6 6 6 6 7 8 10 10 10 10 10 11 12 12 12 13 13 13 13
12 12 13 15 16 16 14 14 13 12 10 9 8 8 7 7 7 9 10 8 7 7 6 5 5 6 6 7 7 7 7 7 7 6 6 6 5 6 7 6 6 7 7 7 7 6 6 5 5 6 6 5 5 6 5 4 5 6 6 6 6 6 6 5 5 7 6 5 5 5 6 7 6 6 8 9 10 11 12 12 12 13 13 14 14 14 14 14
11 12 13 14 16 15 13 13 13 12 10 9 9 8 8 8 7 8 10 9 8 7 7 6 6 7 7 7 8 7 7 7 7 6 6 6 5 6 7 6 5 5 5 7 7 6 6 5 5 5 5 5 6 7 5 5 4 5 6 6 5 6 5 4 5 6 6 6 6 5 6 8 7 6 7 8 9 10 12 12 13 14 14 15 15 14 14 15
11 11 13 14 15 13 12 12 13 12 11 10 10 9 9 8 8 8 9 9 8 8 8 8 8 8 8 8 7 7 7 7 7 6 6 7 7 7 7 6 5 5 5 6 8 7 7 6 4 5 5 6 7 7 6 5 5 5 7 6 5 6 5 3 4 5 5 6 6 5 6 7 7 7 7 7 7 8 9 11 12 14 14 15 15 15 15 15
10 11 12 14 14 12 11 12 12 12 12 11 11 10 10 9 8 8 9 9 8 8 8 9 8 8 8 7 7 7 7 7 7 7 7 7 7 8 7 6 6 6 6 7 7 7 7 6 4 4 5 6 7 7 7 7 6 6 7 6 6 6 5 4 5 5 6 5 4 4 6 8 8 8 8 7 7 8 9 10 11 12 13 14 14 14 14 14
11 11 12 13 14 12 11 11 11 11 11 11 11 11 11 10 9 9 9 8 9 8 9 9 9 8 8 7 7 8 7 7 7 8 7 7 8 8 7 7 7 6 6 6 6 5 5 5 4 3 4 5 6 6 7 7 6 7 6 6 6 5 4 5 5 5 6 6 4 4 6 8 9 8 8 7 7 8 10 10 11 11 12 12 12 12 12 13
10 11 12 13 13 12 11 12 11 10 11 11 10 10 10 10 11 10 9 9 9 9 9 10 9 9 8 8 8 8 8 8 8 7 7 8 8 8 8 8 7 7 6 5 5 5 4 5 5 4 4 5 5 6 7 5 5 7 7 6 6 6 5 5 5 5 5 6 6 6 6 8 9 9 8 8 7 8 9 10 11 12 12 11 11 11 12 12
10 10 11 12 12 12 12 13 13 12 11 10 10 10 10 10 11 11 10 9 10 10 10 10 10 9 9 8 8 9 9 9 8 8 8 8 8 9 9 8 7 7 6 5 5 5 4 5 5 4 5 6 6 7 7 6 6 7 7 7 6 6 6 5 5 6 5 5 8 8 6 7 8 7 7 8 8 8 9 10 10 10 11 11 11 11 12 13
10 10 11 11 11 12 12 13 14 13 12 11 11 11 11 11 11 11 10 10 10 10 10 10 11 10 9 8 8 8 9 9 9 9 8 8 9 9 9 8 7 7 6 5 6 5 4 6 6 5 7 7 7 7 7 6 6 7 7 7 7 6 7 6 7 6 4 5 7 7 6 6 8 7 6 7 7 7 8 9 8 9 9 10 10 11 12 13
10 10 11 11 11 11 12 13 13 13 12 12 12 11 11 11 11 11 11 11 11 11 10 10 11 11 10 9 8 8 9 9 10 10 9 9 9 9 8 8 8 7 6 6 7 6 5 7 6 6 7 8 8 7 6 6 7 7 8 8 8 7 7 7 7 7 6 6 7 6 7 8 7 7 6 6 6 6 7 7 8 8 9 9 10 11 12 13
10 10 11 11 11 12 13 13 13 12 13 13 12 12 11 10 11 12 11 10 11 12 10 9 11 11 10 9 8 9 10 9 9 10 9 9 10 9 8 8 8 7 7 6 7 7 7 7 7 6 8 9 8 7 6 6 8 9 10 9 7 6 7 7 7 7 7 8 7 6 7 8 7 6 7 7 7 6 7 8 8 9 9 9 10 10 11 13
10 10 11 11 12 13 14 14 13 12 13 13 12 12 12 11 11 12 12 11 11 11 10 10 10 10 10 9 9 10 11 9 9 11 10 10 10 10 9 9 8 7 7 7 7 7 7 8 8 7 7 8 7 7 8 8 9 11 11 9 6 5 6 7 7 6 6 6 5 6 7 8 7 6 6 7 7 7 8 8 9 9 10 9 10 11 12 13
10 11 11 11 12 13 13 13 13 13 13 13 13 13 13 13 12 12 11 12 11 11 11 10 10 10 11 11 11 11 11 10 11 12 12 12 12 11 11 10 9 8 8 8 8 8 7 7 7 7 7 9 8 8 8 9 10 10 9 6 5 6 7 7 7 7 6 5 4 6 7 7 7 6 6 7 7 8 9 9 9 9 10 10 11 11 12 13
Wind_Direction
351 349 348 348 348 347 346 345 345 344 342 339 336 335 333 333 331 329 326 321 319 319 321 321 322 321 319 321 327 333 335 337 339 344 5 171 173 161 147 155 162 157 125 75 76 118 163 207 320 273 221 230 258 260 262 254 250 269 265 274 262 252 252 241 244 250 252 259 266 271 257 242 246 250 247 253 258 243 243 250 242 241 242 241 246 253 260 264
351 350 348 348 347 347 347 346 344 344 343 340 337 335 332 332 331 329 326 322 319 318 319 320 323 323 321 324 326 331 333 328 336 350 188 195 179 170 164 164 170 181 0 21 51 102 226 257 261 265 242 245 264 260 261 256 247 259 258 269 254 248 256 250 246 252 260 262 263 268 261 255 248 248 254 257 263 258 251 257 247 241 248 249 255 258 264 270
350 350 349 347 346 346 346 346 344 342 342 341 338 335 332 331 330 329 326 323 320 317 318 319 322 324 324 326 326 330 331 329 337 293 239 208 187 181 175 177 191 216 303 312 295 279 264 263 260 257 257 262 262 253 262 258 249 258 261 270 255 252 266 263 257 259 267 269 269 275 271 269 258 251 253 248 259 264 252 254 251 247 252 256 262 264 267 272
351 350 349 348 347 346 345 345 344 342 340 339 337 335 332 330 329 328 326 323 320 318 318 317 318 320 322 325 324 324 332 343 304 264 254 219 194 188 182 193 216 239 284 300 291 278 268 264 258 255 256 268 270 255 256 254 248 260 252 252 254 255 270 265 262 268 276 277 276 280 276 273 265 255 248 240 253 264 257 256 251 245 249 254 260 267 272 276
353 351 350 349 347 346 346 345 344 343 341 338 336 334 332 330 328 326 325 324 320 318 317 316 314 312 314 319 317 316 327 331 291 273 259 233 202 196 200 216 234 252 283 305 286 274 279 269 259 272 257 263 277 264 260 255 236 254 252 244 248 256 275 268 268 278 283 285 285 287 278 268 265 262 260 254 253 255 255 254 248 247 252 257 261 268 275 279
353 352 351 350 348 347 346 345 344 344 343 340 337 333 331 329 327 326 324 322 319 318 317 315 313 311 312 312 308 311 312 288 283 281 264 238 210 205 212 226 242 261 286 301 288 277 292 298 282 268 258 262 271 263 267 263 237 249 268 269 258 266 290 282 280 288 286 289 285 280 275 266 267 274 272 268 260 250 247 246 245 253 256 259 265 267 273 279
354 352 351 350 349 347 345 345 344 344 344 342 340 336 332 327 325 326 325 322 318 316 315 314 314 314 316 312 307 309 298 279 283 284 264 233 211 209 213 229 245 265 285 297 299 285 294 325 297 255 261 270 269 268 269 267 259 252 274 297 279 272 294 290 286 289 286 293 287 280 283 280 272 268 269 271 260 243 236 242 242 249 256 259 264 266 273 281
356 354 352 351 350 348 346 344 343 343 343 342 342 340 336 330 325 324 323 320 316 314 313 313 314 317 319 317 315 313 299 285 286 285 256 219 206 211 223 242 248 259 273 279 283 274 285 312 281 257 270 270 264 268 264 273 290 272 267 291 292 286 296 292 286 282 280 295 296 299 304 291 265 251 264 268 254 235 232 240 241 245 254 259 262 269 276 283
357 356 354 353 351 349 347 345 344 343 342 341 342 342 339 334 329 325 322 318 315 313 311 312 315 318 320 319 323 320 298 286 285 280 236 211 213 226 240 250 249 256 263 265 271 273 285 290 275 263 258 260 263 266 269 276 272 266 268 288 302 298 300 294 286 284 283 294 299 306 306 284 262 258 271 266 246 234 235 238 243 242 246 257 265 271 277 286
356 356 355 354 352 351 349 347 346 344 342 341 341 341 339 335 332 329 323 317 314 310 309 311 316 321 320 323 331 320 298 296 294 279 239 220 231 242 251 255 255 263 264 265 269 274 277 273 275 268 251 261 265 259 266 271 267 274 273 284 306 300 303 301 291 297 297 298 298 281 284 287 281 268 259 254 238 229 232 237 243 239 242 256 264 271 279 290
355 355 355 354 353 352 350 348 347 346 345 343 340 338 336 333 332 331 328 323 316 311 308 306 316 321 318 325 328 302 301 306 301 287 253 239 244 247 252 256 262 268 270 275 275 271 267 263 269 266 257 263 265 261 266 272 276 284 274 286 311 309 315 317 304 305 304 301 300 279 291 303 294 270 243 237 231 227 226 232 239 233 241 253 266 278 287 296
353 353 353 353 352 351 350 349 348 347 346 343 340 338 334 330 328 328 330 330 325 317 311 306 314 319 321 328 306 285 305 303 293 290 263 252 254 252 253 256 260 266 271 278 277 274 270 266 270 267 259 256 261 265 268 277 278 286 287 293 309 313 315 316 306 304 304 296 291 284 296 301 290 266 238 231 229 228 224 226 234 230 240 260 276 284 290 296
351 352 352 351 351 350 349 349 349 347 345 343 340 339 337 331 328 327 327 330 333 333 327 320 320 324 329 327 299 290 308 304 293 285 272 266 263 261 262 259 258 265 268 270 273 278 274 265 267 262 255 248 256 261 267 287 283 286 300 295 302 312 310 309 304 301 301 294 289 282 284 284 276 253 234 236 233 226 223 227 232 232 244 265 275 281 289 296
350 351 351 350 350 350 350 350 349 348 346 343 340 339 337 335 334 333 329 326 330 337 339 338 339 341 335 319 304 307 311 313 309 287 273 269 269 270 272 269 267 267 264 266 272 276 267 260 265 257 247 244 254 263 276 294 293 289 300 298 300 308 303 304 304 302 297 294 293 282 274 271 263 250 239 239 238 229 223 228 234 236 248 263 270 280 290 298
348 348 349 349 349 349 350 350 349 349 348 345 342 339 337 336 337 339 339 334 329 328 334 340 342 345 337 323 316 318 317 322 319 299 279 268 270 271 276 282 283 274 263 266 272 269 262 260 262 250 246 253 259 267 279 289 296 294 294 296 301 304 301 303 305 303 291 291 300 287 273 269 260 253 245 238 240 238 227 229 238 241 249 259 270 284 291 299
346 346 346 347 347 347 348 348 348 348 347 346 343 341 339 337 337 338 339 338 333 322 322 328 333 341 335 322 320 324 323 321 317 308 293 275 263 264 277 288 289 287 276 271 269 264 263 260 253 249 251 256 255 259 279 292 295 295 292 287 293 300 301 302 302 303 293 287 299 291 271 270 264 251 242 237 238 239 232 234 241 245 252 258 269 283 290 298
344 343 343 344 344 344 345 346 346 346 346 345 343 343 341 337 334 334 334 334 329 320 316 309 318 333 326 315 318 323 322 321 322 317 305 287 263 265 284 293 289 294 293 282 272 263 260 255 246 252 260 259 258 266 285 291 289 292 299 292 291 295 297 298 298 303 305 294 294 294 277 273 268 247 236 239 238 235 234 237 241 245 253 259 267 282 292 299
343 342 341 342 343 343 343 344 344 344 344 343 342 341 340 336 328 326 328 327 317 315 318 307 316 330 327 328 323 313 313 316 320 315 305 295 273 267 278 291 291 295 299 290 278 264 250 253 249 254 270 276 278 285 278 276 277 281 291 296 297 299 297 297 296 298 306 302 290 287 279 275 270 253 243 241 236 233 236 239 241 245 251 258 269 280 289 297
341 341 341 341 342 342 342 342 343 343 342 342 341 338 337 336 326 317 323 325 315 311 312 309 321 319 310 322 321 312 312 312 311 301 298 300 288 275 281 297 300 297 296 284 280 271 249 259 271 266 273 275 270 266 266 270 272 277 289 298 300 302 298 295 295 295 298 302 296 284 271 267 265 262 255 242 234 233 238 242 242 244 250 258 270 279 287 294
341 341 341 341 342 342 341 341 342 342 343 345 344 341 340 337 330 320 323 325 309 299 299 297 307 298 297 311 318 321 320 314 305 295 303 310 298 286 295 307 312 311 298 279 275 270 260 261 264 260 258 260 261 262 280 291 292 298 306 307 303 303 302 299 298 297 295 298 297 286 271 267 262 263 259 242 233 234 238 242 242 243 249 258 267 275 283 290
342 342 342 342 342 342 341 341 341 342 345 348 350 350 347 343 335 322 323 320 301 298 294 291 298 292 295 305 313 326 330 321 309 298 296 307 311 302 304 312 315 310 293 279 273 273 271 255 259 263 254 258 274 276 292 309 312 313 307 305 306 303 302 302 299 299 299 293 287 281 274 273 268 264 259 242 235 240 240 239 241 244 249 258 264 269 277 287
343 342 342 343 343 342 341 340 341 342 345 350 353 355 351 346 335 320 319 313 306 308 296 299 307 297 298 306 306 323 347 336 326 315 300 308 317 307 304 316 310 292 286 283 283 286 282 261 267 273 266 285 313 309 315 319 317 314 305 303 304 301 303 305 304 306 306 294 279 277 273 272 269 263 259 249 242 246 247 243 242 246 252 257 260 263 272 286
343 343 343 343 343 343 341 340 341 343 346 349 352 355 350 343 335 325 319 302 304 319 322 314 311 300 309 315 301 316 347 332 323 322 319 321 322 313 304 314 309 294 294 287 267 266 266 263 270 280 294 316 322 322 329 324 315 310 305 304 300 301 305 304 304 308 307 297 280 276 276 274 271 264 257 254 247 246 251 248 241 244 253 255 255 261 270 282
343 343 343 343 344 343 341 341 344 345 345 345 349 351 349 343 337 330 320 303 299 313 320 319 317 306 312 319 301 315 331 317 311 321 332 341 337 330 317 309 317 313 303 289 257 248 254 262 273 295 310 308 314 321 325 320 315 308 302 302 300 300 301 297 299 303 306 303 290 282 280 273 268 259 252 255 253 249 249 245 240 246 251 250 251 261 273 282
343 343 343 344 344 344 342 343 347 347 344 345 346 346 349 345 340 336 330 328 305 307 313 317 325 317 313 325 310 309 328 320 314 321 336 354 350 336 326 317 320 313 299 288 282 274 269 274 279 292 305 307 311 311 311 312 314 311 305 300 297 296 296 299 306 307 303 297 289 283 276 272 267 256 253 258 258 253 250 243 239 246 248 244 246 258 275 283
343 342 343 344 344 344 346 348 348 347 347 348 346 345 349 348 348 353 360 10 336 319 326 321 324 321 317 326 305 312 341 321 308 321 334 346 346 343 333 323 320 307 284 269 274 272 276 289 287 278 294 306 307 304 305 311 318 315 308 303 303 303 300 297 299 300 291 283 285 283 271 274 272 257 255 260 258 254 253 246 238 239 242 241 244 256 270 277
343 342 343 344 344 346 349 349 347 348 350 347 344 347 350 350 354 1 11 16 342 323 329 320 323 328 318 318 310 320 327 307 306 328 335 335 335 343 340 326 325 312 291 277 277 270 274 299 305 296 299 301 303 305 305 311 318 312 307 312 315 310 301 294 292 293 285 281 291 292 276 275 273 259 258 261 257 255 253 247 237 233 238 237 241 254 262 270
343 342 343 344 344 346 349 349 348 350 349 345 344 347 349 351 356 0 18 14 325 321 333 321 323 323 314 313 324 326 307 311 317 317 329 339 334 343 348 333 330 315 305 288 266 267 272 283 278 284 300 300 298 299 301 310 316 309 308 318 318 311 307 305 303 297 293 290 292 294 287 278 273 264 262 260 253 254 253 246 237 230 231 233 240 250 255 267
343 342 343 344 344 347 349 350 350 349 347 346 346 348 352 358 3 3 10 355 323 326 325 321 325 321 322 326 330 330 318 327 327 301 320 342 341 347 350 335 341 331 320 310 260 264 274 267 257 271 300 299 295 298 304 315 317 314 316 322 324 325 323 318 311 299 300 300 291 295 293 278 274 269 262 257 250 250 249 245 237 228 226 230 237 242 249 266
342 342 343 344 345 349 350 349 349 348 348 349 349 351 359 5 9 11 1 342 333 328 313 322 326 325 342 358 328 331 329 326 328 319 328 344 348 357 359 347 356 355 337 336 313 282 286 282 278 293 303 298 297 305 315 323 322 322 326 326 327 328 325 321 315 306 309 307 297 298 294 272 272 269 256 250 246 245 245 242 234 223 222 229 233 237 247 264
343 343 343 344 346 348 350 350 351 350 349 350 352 358 5 6 12 22 358 334 338 334 326 324 321 335 352 343 316 324 328 327 331 338 336 338 346 352 357 353 352 357 348 340 327 310 311 307 296 296 302 309 313 312 318 328 332 333 329 326 323 322 326 327 321 320 318 309 301 299 293 266 264 266 256 249 245 244 242 235 227 218 219 228 232 238 250 264
343 343 343 345 347 349 350 351 352 351 350 352 357 5 9 7 8 10 350 341 344 340 336 317 311 328 339 329 323 317 319 326 333 346 338 330 337 339 342 344 342 348 343 326 314 314 312 301 298 298 302 315 321 314 317 328 335 337 333 334 331 327 333 329 322 323 315 309 309 306 297 273 258 261 260 251 244 243 236 224 220 219 223 231 234 240 253 266
344 344 346 349 351 352 351 350 351 352 352 354 1 7 12 12 4 357 353 352 347 343 344 326 312 312 319 335 325 314 321 327 327 336 328 321 333 333 329 333 341 346 337 321 313 312 303 299 307 308 305 313 322 316 317 322 329 334 336 341 341 338 340 327 319 321 317 313 314 310 298 277 265 266 265 246 233 230 223 215 216 220 229 239 244 247 256 270
345 347 350 353 353 350 347 347 349 351 353 357 5 9 14 13 360 356 355 344 343 352 354 341 326 325 327 315 302 307 322 326 321 324 321 318 325 326 325 330 338 347 342 331 316 310 303 299 305 303 298 309 316 310 315 321 326 329 330 341 344 338 336 323 316 320 320 318 319 316 303 272 262 263 259 236 221 215 211 214 220 225 231 239 248 253 261 276
347 349 353 355 353 349 347 347 349 351 354 0 9 13 16 8 356 358 354 339 343 352 351 349 353 350 323 303 302 311 316 316 319 323 320 316 308 308 316 319 327 342 345 334 318 316 315 298 294 295 296 307 311 307 320 331 328 326 330 344 340 332 337 332 325 326 328 327 327 323 300 264 254 256 249 226 211 206 205 211 220 228 233 239 248 257 268 283
350 353 355 355 353 351 351 351 352 353 355 3 11 12 11 3 357 357 350 345 345 343 346 346 353 354 321 305 306 313 315 314 317 315 309 306 297 294 302 304 315 334 338 332 319 314 321 307 300 308 311 311 310 310 324 330 323 328 337 336 325 326 346 342 331 337 345 339 327 321 299 270 262 267 252 220 208 204 201 211 225 235 242 249 257 267 278 286
352 353 354 353 352 351 352 353 353 354 358 7 11 8 3 359 358 353 345 344 340 344 358 346 333 334 320 310 305 308 314 313 311 308 300 298 293 288 297 300 310 323 320 320 317 307 312 309 304 313 311 301 305 318 333 335 334 337 333 324 323 333 343 342 336 341 348 339 323 321 303 269 253 256 243 211 208 213 219 238 251 252 252 255 263 274 282 288
349 350 351 352 352 351 352 353 353 355 1 5 4 2 1 357 352 345 342 342 339 346 359 339 323 323 314 316 310 308 315 314 310 308 297 296 291 283 295 299 306 319 315 316 320 313 315 311 303 305 297 296 309 323 328 333 344 350 337 328 333 333 329 334 340 339 340 335 329 324 304 272 247 241 231 216 218 228 242 256 257 252 252 258 269 280 286 290
345 348 349 349 351 351 351 351 353 359 4 2 357 355 356 351 343 340 341 342 340 345 342 323 323 328 319 320 317 315 322 317 311 308 296 293 290 285 292 297 305 320 320 319 318 311 314 309 298 300 296 299 315 321 313 321 337 347 348 343 341 335 327 332 337 339 339 335 331 329 317 288 254 240 229 227 236 240 247 254 251 250 256 266 275 283 286 290
342 346 345 347 350 349 349 353 357 2 1 355 348 346 348 344 339 340 344 345 340 338 332 317 321 326 317 318 317 318 325 321 312 308 297 291 289 287 289 293 303 317 325 331 328 315 318 316 300 301 304 304 307 303 294 308 329 339 344 346 345 343 338 337 338 341 345 339 330 330 323 298 269 253 239 239 247 248 247 250 251 256 264 272 278 282 285 289
341 344 341 345 349 348 351 356 357 357 355 350 344 339 340 340 336 337 343 347 343 336 331 321 317 314 310 313 313 313 322 325 319 312 301 294 291 288 286 286 293 307 322 333 331 318 314 312 303 303 304 294 287 292 292 296 317 332 336 339 344 346 348 349 338 333 339 339 331 328 321 305 286 272 258 250 251 250 250 252 257 262 268 274 278 281 284 289
340 340 338 344 348 348 354 355 349 350 351 347 341 333 332 334 332 330 337 346 345 338 336 329 319 311 306 307 309 311 320 322 318 316 306 296 287 283 284 285 292 305 317 319 314 310 312 314 310 302 290 279 287 297 301 304 318 330 333 336 340 344 354 0 335 326 335 339 333 332 323 311 301 292 280 263 253 252 254 257 261 266 270 273 277 280 284 287
336 334 335 343 345 348 355 351 344 346 344 339 336 330 326 328 326 324 329 336 337 334 334 328 320 314 308 305 306 309 314 315 311 311 309 299 290 285 280 279 292 307 316 312 306 308 315 316 310 304 298 294 299 303 303 311 323 324 326 332 333 332 340 343 329 331 339 335 334 339 326 313 311 310 301 284 269 265 265 263 264 268 272 274 276 279 282 285
329 329 333 341 343 345 349 345 342 342 337 337 338 334 328 324 324 324 323 325 326 327 329 325 320 315 309 307 308 306 308 312 309 308 310 304 296 292 282 276 287 300 303 304 303 304 307 304 300 312 315 310 310 308 303 303 306 307 313 320 323 329 339 333 331 343 340 328 335 342 321 311 317 321 314 304 292 281 274 271 271 273 275 277 277 279 282 287
324 326 330 337 343 347 345 340 341 339 336 338 338 333 330 326 322 322 319 320 322 321 322 321 319 316 310 307 309 309 308 310 308 308 312 309 302 299 292 282 283 292 297 299 304 307 306 297 292 301 300 296 298 295 290 292 300 304 305 308 314 321 323 315 324 339 332 324 330 326 311 313 320 322 316 307 298 286 278 277 278 278 279 281 280 282 286 291
321 323 326 332 340 346 345 340 341 340 337 338 335 332 330 325 320 319 319 320 321 321 321 320 318 319 316 311 306 304 305 308 308 307 309 308 303 301 299 290 282 285 293 302 309 314 313 302 296 288 280 281 282 281 282 290 299 299 298 301 305 308 314 318 318 317 316 322 322 311 311 320 318 313 309 302 296 290 283 279 279 280 282 284 284 286 291 295
319 320 323 327 331 337 340 340 341 338 334 334 332 328 326 321 319 320 320 318 318 320 321 322 322 320 315 311 303 297 298 303 305 303 302 303 302 302 301 294 285 287 294 301 305 309 312 304 297 290 284 282 278 280 287 293 291 289 294 298 296 298 308 311 300 297 312 328 318 310 319 325 315 307 302 297 297 296 288 282 281 283 285 285 287 290 292 294
317 318 321 324 324 326 331 333 334 335 333 330 326 324 324 324 320 316 314 316 317 318 318 320 322 319 312 307 301 295 297 301 302 301 301 301 303 307 306 296 288 291 296 300 301 302 302 297 293 294 296 293 288 286 286 289 292 292 289 287 287 288 287 285 287 290 299 308 307 309 316 313 311 313 305 295 294 293 288 286 289 294 293 290 290 289 289 292
316 319 320 324 323 322 325 326 327 331 331 328 326 325 325 322 317 311 310 314 315 315 315 314 314 314 312 308 302 295 291 292 296 298 298 299 301 303 301 292 287 291 295 295 296 294 290 291 293 300 305 304 300 294 285 287 296 299 295 290 286 280 274 281 293 294 294 299 305 312 311 306 308 310 307 306 307 304 304 304 303 303 298 294 293 291 291 294
314 316 318 324 326 325 325 325 326 327 327 326 326 324 321 316 313 311 310 311 311 310 313 311 307 310 312 311 306 297 286 279 286 291 291 296 300 296 289 283 281 290 295 290 289 290 288 288 294 305 307 304 306 307 305 302 296 295 300 301 292 283 283 292 298 295 296 300 304 313 314 310 308 305 308 318 323 319 315 310 304 303 302 300 299 298 298 299
312 313 316 321 322 324 324 323 325 326 324 324 322 319 318 314 311 311 308 306 305 303 304 303 303 309 316 315 307 296 287 279 281 285 285 288 291 287 285 280 273 281 288 282 280 284 284 286 295 307 303 296 305 314 310 310 305 298 298 294 278 274 282 286 287 282 281 290 304 317 314 308 308 312 317 323 324 317 309 305 305 306 305 304 302 301 303 304
311 313 316 319 318 320 322 322 323 322 318 317 317 314 313 311 311 312 309 308 309 304 299 297 300 308 315 313 306 297 291 285 283 286 286 286 284 281 279 275 267 269 274 275 278 278 275 279 289 296 291 289 301 310 305 309 313 305 295 277 261 275 284 285 287 281 274 282 301 304 300 300 309 320 323 322 321 315 307 306 308 307 306 306 306 306 307 307